Location: Lobstick
(53.6000°N, 115.1667°W)
Time: 04:24:38
(UTC+00:00)

STRAND 1 - Visible Passes

Search period start: 07 December 2023 00:00
Search period end: 17 December 2023 00:00
Orbit: 765 x 779 km, 98.4° (Epoch: 06 December)

Date Brightness Start Highest point End Pass type
(mag) Time Alt. Az. Time Alt. Az. Time Alt. Az.
07 Dec ? 01:50:01 31° SE 01:50:01 31° SE 01:53:22 10° SSE visible
07 Dec ? 03:30:22 26° WSW 03:30:22 26° WSW 03:32:44 10° SW visible
07 Dec ? 11:28:47 10° E 11:32:22 20° NE 11:34:55 14° NNE visible
07 Dec ? 13:05:46 10° SSE 13:10:53 90° E 13:15:16 14° NNW visible
07 Dec ? 14:47:33 10° SW 14:50:46 17° W 14:54:00 10° NW visible
08 Dec ? 01:14:55 18° ESE 01:14:55 18° ESE 01:17:20 10° SE visible
08 Dec ? 02:55:16 40° SSW 02:55:16 40° SSW 02:58:29 10° SSW visible
08 Dec ? 10:56:17 10° ENE 10:58:12 12° NE 10:59:42 11° NNE visible
08 Dec ? 12:31:22 10° SE 12:36:17 51° ENE 12:40:02 17° N visible
08 Dec ? 14:11:13 10° SSW 14:15:40 30° W 14:20:09 10° NNW visible
09 Dec ? 02:20:09 42° SSE 02:20:09 42° SSE 02:23:42 10° S visible
09 Dec ? 04:00:30 16° WSW 04:00:30 16° WSW 04:01:45 10° WSW visible
09 Dec ? 11:57:27 10° ESE 12:01:50 30° ENE 12:04:49 17° N visible
09 Dec ? 13:35:45 10° S 13:40:45 54° W 13:45:09 13° NNW visible
10 Dec ? 01:45:02 29° ESE 01:45:02 29° ESE 01:48:20 10° SSE visible
10 Dec ? 03:25:23 28° WSW 03:25:23 28° WSW 03:27:56 10° SW visible
10 Dec ? 11:24:08 10° E 11:27:32 18° NE 11:29:35 15° NNE visible
10 Dec ? 13:00:54 10° SSE 13:06:00 83° ENE 13:09:55 17° NNW visible
10 Dec ? 14:42:22 10° SW 14:45:48 18° W 14:49:16 10° NW visible
11 Dec ? 01:09:54 17° ESE 01:09:54 17° ESE 01:12:11 10° SE visible
11 Dec ? 02:50:15 42° SSW 02:50:15 42° SSW 02:53:36 10° SSW visible
11 Dec ? 10:51:52 10° ENE 10:53:23 11° NE 10:54:22 11° NNE visible
11 Dec ? 12:26:33 10° SE 12:31:24 47° ENE 12:34:43 20° N visible
11 Dec ? 14:06:11 10° SSW 14:10:44 32° W 14:15:03 11° NNW visible
12 Dec ? 02:15:07 42° SSE 02:15:07 42° SSE 02:18:45 10° S visible
12 Dec ? 03:55:29 18° WSW 03:55:29 18° WSW 03:57:01 10° WSW visible
12 Dec ? 11:52:42 10° ESE 11:56:58 28° ENE 11:59:30 19° NNE visible
12 Dec ? 13:30:48 10° S 13:35:50 59° WSW 13:39:50 16° NNW visible
13 Dec ? 01:39:59 27° ESE 01:39:59 27° ESE 01:43:18 10° SSE visible
13 Dec ? 03:20:20 31° WSW 03:20:20 31° WSW 03:23:07 10° SW visible
13 Dec ? 11:19:29 10° E 11:22:41 17° NE 11:24:18 15° NNE visible
13 Dec ? 12:56:01 10° SSE 13:01:05 77° ENE 13:04:38 20° NNW visible
13 Dec ? 14:37:11 10° SW 14:40:50 20° W 14:44:31 10° NW visible
14 Dec ? 01:04:50 16° ESE 01:04:50 16° ESE 01:06:59 10° SE visible
14 Dec ? 02:45:11 46° SSW 02:45:11 46° SSW 02:48:42 10° SSW visible
14 Dec ? 04:25:32 10° W 04:25:32 10° W 04:25:39 10° W visible
14 Dec ? 10:47:35 10° NE 10:48:34 11° NE 10:49:05 10° NE visible
14 Dec ? 12:21:44 10° SE 12:26:32 43° ENE 12:29:26 22° N visible
14 Dec ? 14:01:08 10° SSW 14:05:47 35° W 14:09:47 13° NNW visible
15 Dec ? 02:10:02 42° SE 02:10:02 42° SE 02:13:47 10° S visible
15 Dec ? 03:50:23 20° WSW 03:50:23 20° WSW 03:52:15 10° WSW visible
15 Dec ? 11:47:58 10° ESE 11:52:06 26° ENE 11:54:14 20° NNE visible
15 Dec ? 13:25:51 10° S 13:30:54 64° WSW 13:34:35 19° NNW visible
16 Dec ? 01:34:52 26° ESE 01:34:52 26° ESE 01:38:14 10° SSE visible
16 Dec ? 03:15:14 35° SW 03:15:14 35° SW 03:18:17 10° SW visible
16 Dec ? 11:14:50 10° E 11:17:51 16° NE 11:19:03 15° NNE visible
16 Dec ? 12:51:08 10° SSE 12:56:11 71° ENE 12:59:23 23° N visible
16 Dec ? 14:32:02 10° SW 14:35:52 21° W 14:39:43 10° NW visible
